Location: Cossé
(47.1623°N, 0.3598°W)
Time: 10:56:02
(UTC+00:00)

Daily predictions for brighter satellites

Satellite Brightness Start Highest point End
(mag) Time Altitude Azimuth Time Altitude Azimuth Time Altitude Azimuth
ATLAS 2AS CENTAUR R/B 3.1 20:10:20 10° SSW 20:17:55 57° ESE 20:25:18 10° NE
SL-4 R/B 4.2 20:19:07 10° W 20:22:31 20° SW 20:25:46 10° S
NOSS 3-4 (A) 4.3 20:17:15 10° WSW 20:22:53 56° NW 20:29:04 10° NE
NOSS 3-4 (C) 4.2 20:17:16 10° WSW 20:22:56 56° NW 20:29:08 10° NE
Cosmos 1515 3.9 20:20:13 10° SSW 20:23:58 74° W 20:27:44 10° N
Meteor 2-9 Rocket 4.5 20:18:42 10° N 20:24:21 56° ENE 20:29:50 10° SSE
Cosmos 773 Rocket 4.1 20:19:37 10° NNW 20:24:52 71° ENE 20:30:01 10° SSE
Okean 1 3.8 20:21:12 10° SSE 20:25:00 43° E 20:28:50 10° NNE
Cosmos 1536 3.3 20:21:10 10° NNW 20:25:09 64° W 20:29:09 10° S
Meteor 1-19 Rocket 4.4 20:20:16 10° SSE 20:25:26 48° E 20:30:36 10° NNE
Cosmos 1340 2.8 20:22:08 10° SSW 20:25:51 77° WNW 20:29:37 10° N
Cosmos 1777 Rocket 4.3 20:23:05 10° S 20:28:02 45° ESE 20:33:01 10° NNE
OE (NEXTSAT) 4.2 20:25:54 10° WSW 20:29:11 69° S 20:32:29 10° E
Cosmos 1933 Rocket 3.8 20:27:09 10° NNW 20:31:38 79° W 20:36:05 10° S
SL-16 R/B 3.2 20:29:23 10° SSE 20:34:00 26° ESE 20:38:37 10° NE
ATLAS 3B R/B 3.3 20:28:04 10° NW 20:35:15 56° NE 20:42:41 10° ESE
Cosmos 1354 Rocket 4.0 20:30:07 10° SSW 20:35:24 81° ESE 20:40:44 10° NNE
Cosmos 158 Rocket 4.3 20:30:29 10° NNW 20:35:33 53° ENE 20:40:42 10° SE
NOSS 2-1 (E) 4.0 20:33:29 10° S 20:36:06 22° ESE 20:38:40 10° ENE
SJ 16-02 1.3 20:32:20 10° S 20:36:40 70° ESE 20:41:03 10° NNE
IRS-1A Rocket 4.5 20:32:11 10° SSE 20:37:52 82° WSW 20:43:43 10° NNW
PSLV R/B 4.0 20:33:49 10° NNE 20:37:52 80° WNW 20:41:53 10° SSW
RESURS DK-1 2.3 20:36:28 10° SSW 20:40:34 73° ESE 20:44:41 10° NNE
Terra 3.2 20:39:53 10° ESE 20:43:48 26° ENE 20:47:44 10° N
SL-24 R/B - RUBIN 2 3.7 20:43:02 10° NW 20:47:26 74° NE 20:51:39 12° SE
SPOT 3 Rocket 3.6 20:44:07 10° SSE 20:49:12 67° ENE 20:54:20 10° N
Cosmos 482 Debris 4.2 20:47:01 10° WNW 20:49:39 49° SSW 20:53:01 13° SE
Cosmos 1743 4.3 20:51:01 10° NNW 20:54:25 32° W 20:57:47 10° SSW
Cosmos 2360 Rocket 3.7 20:51:52 12° SE 20:55:01 18° E 20:58:42 10° ENE
Cosmos 2263 Rocket 2.3 20:49:30 10° NNW 20:55:06 77° WSW 21:00:30 11° SSE
Cosmos 389 Rocket 4.4 20:52:50 10° NNW 20:55:52 27° W 20:58:53 10° SSW
Cosmos 921 Rocket 4.2 20:51:49 10° NNW 20:56:04 42° WSW 21:00:15 10° S
ERS-1 Rocket 3.6 20:51:44 12° SE 20:56:05 43° ENE 21:00:51 10° N
Cosmos 1975 3.2 20:52:08 10° N 20:56:07 51° ENE 20:59:29 14° SSE
Cosmos 2278 3.7 20:50:34 10° SSW 20:56:14 84° ESE 21:01:57 10° NNE
SPOT 5 3.5 20:51:54 12° SE 20:56:36 49° ENE 21:01:27 10° N
ATLAS CENTAUR R/B 3.5 20:52:37 10° NNW 20:56:38 25° NE 21:00:32 10° E
Cosmos 1378 3.2 20:56:42 10° S 21:00:16 55° E 21:03:52 10° NNE
CZ-4C R/B 4.2 21:03:42 10° NNW 21:09:39 32° NNE 21:16:36 10° E
Cosmos 2034 Rocket 4.4 21:05:02 10° SSW 21:11:19 70° W 21:17:42 10° N
Cosmos 1538 Rocket 4.0 21:09:49 10° NNW 21:15:05 80° ENE 21:19:10 17° SSE
Meteor 1-18 Rocket 4.2 21:10:21 10° S 21:16:02 84° E 21:21:40 10° NNE
NOSS 2-1 (C) 2.6 21:13:24 10° SSW 21:16:42 72° SE 21:19:55 10° NE
CARTOSAT-1 4.0 21:14:58 11° S 21:19:06 60° W 21:23:23 10° NNW
USA 81 4.2 21:16:04 13° SSE 21:20:42 61° E 21:25:55 10° NNE
Cosmos 44 Rocket 3.7 21:16:20 10° NW 21:20:54 52° WSW 21:24:24 16° SSE
Meteor 1-4 Rocket 3.6 21:18:16 10° N 21:21:23 29° ENE 21:23:07 19° ESE
Cosmos 1869 Rocket 4.4 21:17:53 10° NNW 21:22:13 49° W 21:26:30 10° SSW
Resurs 01 Rocket 3.5 21:20:50 10° SSW 21:24:33 26° W 21:28:18 10° NW
Cosmos 2279 Rocket 4.3 21:19:35 15° SSE 21:24:36 50° E 21:30:34 10° NNE
Cosmos 1980 Rocket 3.6 21:20:35 10° WSW 21:25:52 41° NW 21:31:15 10° NNE
Cosmos 1346 Rocket 2.7 21:22:38 13° S 21:26:10 74° E 21:30:11 10° NNE
CZ-2C R/B 3.9 21:21:39 10° NNE 21:26:23 56° E 21:30:12 15° S
ISS -2.2 21:23:49 10° W 21:26:36 24° SW 21:28:00 18° S
NOSS 2-1 (D) 2.7 21:23:46 10° SW 21:27:03 87° NW 21:30:17 10° NE
Helios 1A Rocket 3.0 21:25:00 17° S 21:28:04 73° WSW 21:32:05 10° NNW
Cosmos 923 Rocket 4.4 21:27:39 10° NNW 21:32:53 53° ENE 21:36:26 20° SE
Cosmos 1844 Rocket 3.1 21:27:56 10° NNW 21:33:24 51° ENE 21:37:16 19° SE
Ariane Rocket 4.4 21:29:18 10° SSW 21:33:52 33° W 21:38:28 10° NNW
Cosmos 2322 Rocket 2.3 21:30:38 10° S 21:36:06 57° ESE 21:41:37 10° NE
Cosmos 2228 Rocket 4.2 21:35:28 10° SSW 21:39:49 44° WNW 21:44:10 10° N
Cosmos 990 Rocket 4.1 21:36:58 15° S 21:41:12 56° ESE 21:46:20 10° NNE
CZ-4B R/B 4.4 21:41:25 10° NNW 21:43:03 13° WNW 21:44:39 10° W
Cosmos 1707 Rocket 3.9 21:43:14 11° SSW 21:47:33 65° WNW 21:51:55 10° N
Cosmos 1733 3.4 21:44:01 10° N 21:47:44 54° ENE 21:49:18 30° SE
Meteor 2-10 4.4 21:43:21 10° N 21:48:26 50° ENE 21:51:15 24° SE
Cosmos 2292 Rocket 4.3 21:46:34 10° NNW 21:49:10 28° W 21:51:11 14° SSW
Cosmos 1805 3.4 21:45:39 10° N 21:49:30 57° E 21:51:12 30° SE
Cosmos 2333 Rocket 3.2 21:47:36 22° SE 21:49:39 28° ESE 21:54:22 10° NE
SAR-Lupe-4 4.2 21:46:25 10° NNE 21:49:47 37° E 21:50:45 31° SE
Geosat FO 4.5 21:49:31 31° SSE 21:50:57 69° WSW 21:54:16 10° NNW
Cosmos 2112 Rocket 4.5 21:48:08 10° NNW 21:53:22 51° ENE 21:56:25 23° SE
Cosmos 1680 Rocket 3.8 21:48:10 10° NNW 21:53:26 59° ENE 21:56:28 25° SE
Meteor 2-4 Rocket 4.2 21:48:37 10° SSW 21:54:18 61° WNW 21:59:51 10° N
Meteor 2-15 Rocket 4.4 21:49:28 16° S 21:54:28 82° E 22:00:35 10° N
Cosmos 2219 Rocket 3.4 21:55:02 21° SE 21:56:30 24° ESE 22:00:51 10° NE
Cosmos 2180 Rocket 4.5 21:54:28 21° S 21:58:43 68° E 22:04:49 10° NNE
Cosmos 1726 3.0 21:57:39 10° N 22:01:03 34° ENE 22:02:08 28° ESE
Cosmos 1703 Rocket 4.2 22:01:58 29° SE 22:03:33 41° E 22:07:42 10° NNE
Cosmos 1898 Rocket 3.6 22:01:04 22° S 22:04:22 60° ESE 22:09:36 10° NNE
ARIANE 5 R/B 2.8 22:02:33 26° S 22:05:00 71° WSW 22:09:32 10° NNW
Meteor 1-12 Rocket 4.4 21:59:42 10° N 22:05:37 67° ENE 22:08:53 27° SSE
OE (NEXTSAT) 4.2 22:02:48 10° W 22:06:03 58° SSW 22:06:38 48° SSE
Cosmos 1844 3.8 22:01:03 10° NNW 22:06:53 76° ENE 22:10:11 27° SE
Spot 2 Rocket 4.5 22:03:31 16° SSW 22:07:14 40° W 22:11:59 10° NNW
ATLAS 2AS CENTAUR R/B 4.0 22:01:41 10° WSW 22:09:08 47° NW 22:16:19 10° NE
Cosmos 1766 3.7 22:05:18 10° N 22:09:09 50° ENE 22:10:27 35° SE
SAR-Lupe-1 3.9 22:07:28 10° NNE 22:11:04 80° ESE 22:12:23 37° S
USA 267 4.4 22:07:01 10° E 22:13:04 42° NNE 22:19:08 10° NW
Cosmos 1733 Rocket 4.1 22:09:35 10° NNW 22:13:47 41° W 22:16:33 19° SSW
SJ 16-02 4.2 22:13:05 10° W 22:15:44 16° NW 22:18:26 10° NNW
Cosmos 1818 3.5 22:10:28 10° NW 22:15:58 90° NE 22:18:45 30° SE
SL-16 R/B 2.9 22:12:12 10° SW 22:17:45 55° WNW 22:23:20 10° NNE
Cosmos 1782 Rocket 4.1 22:13:53 10° N 22:18:05 44° ENE 22:19:37 31° SE
Terra 2.7 22:18:33 21° SSW 22:21:21 42° W 22:25:53 10° NNW
ATLAS 3B R/B 3.5 22:19:01 10° NW 22:25:57 44° WSW 22:30:18 23° S
Cosmos 1908 Rocket 3.5 22:24:16 10° NNW 22:28:37 79° W 22:30:15 38° S
Cosmos 372 Rocket 4.2 22:27:05 34° SSE 22:28:56 50° ESE 22:33:56 10° NNE
Cosmos 1356 4.3 22:28:06 27° SW 22:29:30 43° WNW 22:32:41 10° N
Gblst 52 Del rocket 4.4 22:22:52 10° WSW 22:29:35 89° NNW 22:35:28 10° ENE
BREEZE-M DEB (TANK) 2.1 22:27:38 10° WNW 22:29:47 69° NNE 22:30:22 47° E
Cosmos 2237 Rocket 4.2 22:30:32 11° ESE 22:31:13 12° E 22:33:02 10° ENE
ATLAS CENTAUR R/B 1.7 22:31:05 10° NW 22:35:58 74° SW 22:37:34 40° SSE
NOSS 3-1 (A) 4.4 22:30:07 10° NW 22:37:19 61° NE 22:44:14 16° ESE
Cosmos 2360 Rocket 2.3 22:33:32 15° SSW 22:38:20 76° WNW 22:44:01 10° NNE
COSMOS 2428 3.3 22:40:20 32° SE 22:41:52 38° ESE 22:47:04 10° NE
NOSS 3-1 (C) 4.1 22:35:29 10° NW 22:42:55 89° NE 22:48:23 26° SE
Cosmos 1655 Rocket 4.0 22:37:14 10° NNW 22:43:28 77° W 22:46:41 30° S
Cosmos 1461 3.2 22:39:28 10° NNW 22:43:36 63° NE 22:45:05 37° ESE
Cosmos 1470 3.1 22:41:05 10° N 22:44:51 50° ENE 22:45:34 43° ESE
Okean 3 3.4 22:45:31 43° SSW 22:46:53 86° WNW 22:51:10 10° N
ALOS 2 3.5 22:47:06 29° ESE 22:48:35 38° ENE 22:52:40 10° N
Spot 4 4.0 22:47:53 37° SE 22:49:37 64° ENE 22:54:22 10° N
Okean 2 Rocket 4.4 22:45:56 10° N 22:49:54 29° ENE 22:51:23 24° ESE
H-2A R/B 4.1 22:46:28 10° NNE 22:50:17 37° E 22:50:42 36° ESE
Cosmos 1674 4.3 22:50:20 21° E 22:50:23 21° E 22:53:18 10° NE
Cosmos 2242 Rocket 3.6 22:49:31 40° SSW 22:51:09 86° W 22:55:43 10° N
Cosmos 2333 4.1 22:48:20 27° SSW 22:51:29 85° ESE 22:57:10 10° NNE
Okean 1-7 3.6 22:53:13 30° SW 22:55:10 54° WNW 22:59:27 10° N
Geosat 4.2 22:55:20 38° S 22:57:05 58° WSW 23:02:03 10° NW
CZ-4C R/B 3.0 22:51:58 10° NW 22:59:10 84° NE 23:04:30 25° SE
Cosmos 2266 Rocket 4.3 22:54:12 10° NNW 23:00:16 57° W 23:03:23 28° SSW
Cosmos 220 Rocket 4.4 23:01:09 40° ESE 23:01:24 41° ESE 23:05:21 10° NE
Cosmos 2278 Rocket 3.2 22:56:08 10° NNW 23:01:28 39° NE 23:04:58 19° ESE
Cosmos 1842 3.2 23:01:19 55° SSW 23:02:05 79° W 23:05:59 10° N
SL-08 ROCKET BODY 4.4 23:01:23 10° N 23:07:16 73° E 23:09:39 37° SSE
Okean 2 4.0 23:07:57 38° ESE 23:08:21 39° E 23:12:11 10° NNE
Lacrosse 5 4.0 23:11:16 13° ESE 23:11:16 13° ESE 23:12:28 10° E
USA 305 3.5 23:11:45 38° ESE 23:11:45 38° ESE 23:14:51 10° ENE
Cosmos 1937 Rocket 4.1 23:07:41 20° SW 23:11:10 54° WNW 23:16:24 10° NNE
ADEOS Rocket 3.4 23:09:52 29° SE 23:12:38 53° ENE 23:18:37 10° N
Meteor 1-21 4.4 23:11:57 38° SSE 23:14:04 63° E 23:19:49 10° NNE
Cosmos 1844 Rocket 4.0 23:12:20 10° NW 23:16:59 28° WSW 23:18:55 22° SW
USA 215 3.3 23:13:22 10° ENE 23:19:48 55° SE 23:22:54 31° SSW
Cosmos 1242 Rocket 2.5 23:16:27 10° N 23:20:02 65° ENE 23:20:11 64° E
Cosmos 2322 Rocket 4.0 23:15:44 10° WSW 23:20:30 28° NW 23:25:20 10° N
Sich 1 Rocket 3.6 23:16:56 10° N 23:21:21 73° E 23:22:19 52° SE
Iridium 4 Rocket 4.3 23:17:02 10° NNW 23:21:27 40° W 23:23:32 27° SW
Cosmos 1953 3.8 23:22:14 10° NNE 23:25:41 27° ENE 23:26:37 24° E
Cosmos 1238 Rocket 3.1 23:25:55 10° N 23:28:38 41° ENE 23:28:38 41° ENE
ERS-2 2.1 23:25:18 10° NNE 23:28:54 66° ESE 23:28:55 66° ESE
Cosmos 2322 3.8 23:26:48 28° SW 23:29:53 74° WNW 23:35:39 10° NNE
Cosmos 2333 Rocket 2.9 23:29:33 18° SW 23:33:36 52° WNW 23:39:11 10° NNE
ASTEX 1 4.0 23:30:20 10° NNE 23:35:04 45° E 23:36:19 37° SE
Cosmos 1674 Rocket 4.0 23:34:39 43° ESE 23:35:15 46° E 23:39:23 10° NNE
Cosmos 1726 4.2 23:33:18 10° NW 23:35:46 17° W 23:36:25 17° W
Cosmos 2298 Rocket 4.4 23:35:26 41° SE 23:36:38 48° ESE 23:41:45 10° NNE
Cosmos 2219 Rocket 2.6 23:36:42 24° SW 23:40:01 59° WNW 23:45:34 10° NNE
Cosmos 468 4.4 23:36:25 10° NNW 23:41:41 85° ENE 23:43:21 45° SSE
Cosmos 1867 3.7 23:39:57 27° SW 23:42:58 74° NW 23:48:28 10° NE
Cosmos 1758 3.2 23:39:33 10° NNW 23:43:33 73° W 23:43:58 65° SW
ATLAS 5 CENTAUR R/B 3.3 23:30:00 10° NW 23:45:10 82° NE 23:47:43 30° SE
Cosmos 1378 Rocket 3.7 23:47:27 52° SE 23:48:11 61° E 23:52:35 10° NNE
USA 290 2.8 23:48:15 51° WNW 23:48:15 51° WNW 23:51:22 10° NNE
NOSS 0 Rocket 4.0 23:47:40 40° S 23:49:56 66° ESE 23:56:08 10° NNE
Cosmos 1300 4.0 23:47:21 10° NNE 23:50:43 29° ENE 23:51:27 27° E
USA 306 2.7 23:52:18 64° SW 23:52:53 82° SSE 23:57:04 10° ENE
Cosmos 1707 3.6 23:52:22 36° WSW 23:53:04 40° WNW 23:56:44 10° N
